IRIS-F3

导读

IRIS-F3是美国于2025年1月14日发射的卫星,延续了IRIS系列对太阳大气的观测任务。它聚焦太阳表面与日冕间的界面区域,旨在解析该区域能量传输、等离子体运动规律,揭示日冕加热机制。作为IRIS系列的后续卫星,它将提升对太阳活动的观测精度,助力研究太阳活动对近地空间环境及地球气候的影响,为空间天气预警提供科学数据支撑。

Basic Information
目录编号:
62619
目录名称:
IRIS-F3
国际标识:
2025-009L
轨道中心:
EARTH
卫星名称:
IRIS-F3
卫星全名:
IRIS-F3
卫星状态:
在轨 (已飞行598 天)
发射日期:
2025-01-14 UTC
国别 :
(TW)
星等 :
--
Orbit Information
数据来源 国际轨道数据
星历时间: 2026-09-03T12:53:52+0800
1天前
查看轨道信息
半长轴: 6859.605km
偏心率: 0.0007226
轨道倾角: 97.401°
近地点辐角 57.494°
升交点赤经 326.476°
平近点角 302.700°
近地点: 476.511km
远地点: 486.425km
周期: 94.234分钟
每日圈数: 15.281084
Detailed Information
使用方式:
暂无
2D Orbit Map
3D Orbit Map
Orbit Altitude Analysis Chart
Orbit Inclination Analysis Chart
Orbit Comprehensive Analysis Chart
View Comprehensive Chart
Conjunction Data List
Event ID Objects TCA Miss Dist (km) Collision Risk Probability Collision Risk Index (CRI) Action
CDM_260904-160605-946406-261921
IRIS-F3 (62619)
2026-09-04T
16:06:03+0000
1.326 km
极远距离
9.573414E-6 低风险 0.55
CDM_260905-162705-848106-261921
IRIS-F3 (62619)
2026-09-05T
16:27:42+0000
1.701 km
极远距离
4.247013E-6 低风险 0.48
CDM_260905-004405-946406-261921
IRIS-F3 (62619)
2026-09-05T
00:44:29+0000
2.204 km
极远距离
2.136334E-6 低风险 0.42
CDM_260903-000305-967206-261922
IRIS-F3 (62619)
2026-09-03T
00:03:51+0000
2.545 km
极远距离
1.645717E-6 低风险 0.39
CDM_260905-092305-848106-261921
IRIS-F3 (62619)
2026-09-05T
09:23:30+0000
2.532 km
极远距离
1.634501E-6 低风险 0.39
CDM_260905-232506-261906-404621
IRIS-F3 (62619)
2026-09-05T
23:25:32+0000
2.121 km
极远距离
1.594315E-6 低风险 0.39
CDM_260906-032606-261906-332421
IRIS-F3 (62619)
2026-09-06T
03:26:30+0000
2.702 km
极远距离
1.429486E-6 低风险 0.38
CDM_260904-161005-600806-261921
IRIS-F3 (62619)
2026-09-04T
16:10:19+0000
2.873 km
极远距离
1.380603E-6 低风险 0.38
CDM_260904-204705-724906-261921
IRIS-F3 (62619)
2026-09-04T
20:47:32+0000
2.775 km
极远距离
1.369566E-6 低风险 0.38
CDM_260905-145506-261906-660921
IRIS-F3 (62619)
2026-09-05T
14:55:46+0000
2.894 km
极远距离
1.356972E-6 低风险 0.38